Le nostre stazioni meteo in Italia

Pubblicità
Il mio iltempo24.it
Cassley, Gran Bretagna (99003): Temperatura & dewpoint: 10.02.2019 06:00:00 - 16.02.2019 06:00:00 (GMT)Cassley, Gran Bretagna (99003): precipitazioni: 10.02.2019 06:00:00 - 16.02.2019 06:00:00 (GMT)
Data & Tempo tt [°C] td [°C] rr [mm]
16.02.2019 06:00:00 7,4 5,6 0,0
16.02.2019 05:00:00 8,4 5,9 0,0
16.02.2019 04:00:00 8,9 6,0 0,0
16.02.2019 03:00:00 9,2 6,1 0,0
16.02.2019 02:00:00 7,3 5,3 0,0
16.02.2019 01:00:00 8,5 5,3 0,2
16.02.2019 00:00:00 9,1 5,9 0,6
15.02.2019 23:00:00 9,4 6,9 4,4
15.02.2019 22:00:00 8,5 8,3 1,0
15.02.2019 21:00:00 9,5 8,4 1,0
15.02.2019 20:00:00 9,7 8,2 0,4
15.02.2019 19:00:00 10,9 7,6 0,0
15.02.2019 18:00:00 11,1 6,9 0,0
15.02.2019 17:00:00 11,1 6,5 0,0
15.02.2019 16:00:00 11,5 6,1 0,0
15.02.2019 15:00:00 13,0 4,9 0,0
15.02.2019 14:00:00 12,9 4,5 0,0
15.02.2019 13:00:00 12,9 4,8 0,0
15.02.2019 12:00:00 13,3 4,4 0,0
15.02.2019 11:00:00 12,8 4,5 0,0
15.02.2019 10:00:00 11,9 2,7 0,0
15.02.2019 09:00:00 10,2 1,3 0,0
15.02.2019 08:00:00 7,4 0,6 0,0
15.02.2019 07:00:00 8,1 1,5 0,0
15.02.2019 06:00:00 7,9 2,0 0,0
15.02.2019 05:00:00 2,4 1,7 0,0
15.02.2019 04:00:00 2,4 2,0 0,0
15.02.2019 03:00:00 1,9 1,7 0,0
15.02.2019 02:00:00 2,0 1,8 0,0
15.02.2019 01:00:00 2,3 2,0 0,0
15.02.2019 00:00:00 2,7 2,3 0,0
14.02.2019 23:00:00 3,5 3,1 0,0
14.02.2019 22:00:00 3,9 3,3 0,0
14.02.2019 21:00:00 4,5 3,5 0,0
14.02.2019 20:00:00 5,6 4,8 0,0
14.02.2019 19:00:00 6,5 5,6 0,0
14.02.2019 18:00:00 9,0 6,7 0,0
14.02.2019 17:00:00 9,3 7,3 0,0
14.02.2019 16:00:00 10,1 8,8 0,0
14.02.2019 15:00:00 9,8 8,1 0,0
14.02.2019 14:00:00 10,4 9,4 0,4
14.02.2019 13:00:00 9,8 9,5 0,2
14.02.2019 12:00:00 10,4 9,3 0,0
14.02.2019 11:00:00 10,0 8,8 0,2
14.02.2019 10:00:00 9,5 8,7 1,2
14.02.2019 09:00:00 9,6 8,5 1,0
14.02.2019 08:00:00 10,0 8,3 0,6
14.02.2019 07:00:00 10,4 8,1 0,8
14.02.2019 06:00:00 10,3 8,3 1,2
14.02.2019 05:00:00 10,6 8,4 1,2
14.02.2019 04:00:00 11,0 8,7 0,4
14.02.2019 03:00:00 11,1 8,3 0,4
14.02.2019 02:00:00 11,3 7,9 0,0
14.02.2019 01:00:00 11,1 7,3 0,0
14.02.2019 00:00:00 10,2 7,3 0,0
13.02.2019 23:00:00 9,8 7,6 0,0
13.02.2019 22:00:00 9,8 7,9 0,2
13.02.2019 21:00:00 10,2 7,9 0,2
13.02.2019 20:00:00 10,7 7,7 0,0
13.02.2019 19:00:00 10,2 7,5 0,0
13.02.2019 18:00:00 10,3 7,3 0,0
13.02.2019 17:00:00 10,3 7,4 0,0
13.02.2019 16:00:00 10,2 8,0 0,0
13.02.2019 15:00:00 10,7 8,0 0,0
13.02.2019 14:00:00 11,5 8,3 0,0
13.02.2019 13:00:00 9,8 7,1 0,0
13.02.2019 12:00:00 10,6 7,9 0,0
13.02.2019 11:00:00 9,7 8,4 0,2
13.02.2019 10:00:00 9,0 7,8 0,0
13.02.2019 09:00:00 6,1 5,7 0,2
13.02.2019 08:00:00 6,0 5,7 0,4
13.02.2019 07:00:00 6,1 5,2 0,6
13.02.2019 06:00:00 4,1 3,2 0,4
13.02.2019 05:00:00 4,1 2,3 0,0
13.02.2019 04:00:00 3,9 2,4 0,0
13.02.2019 03:00:00 3,6 1,8 0,0
13.02.2019 02:00:00 7,3 3,2 0,0
13.02.2019 01:00:00 6,8 3,1 0,0
13.02.2019 00:00:00 8,7 3,6 0,0
12.02.2019 23:00:00 8,4 3,8 0,0
12.02.2019 22:00:00 8,4 3,5 0,0
12.02.2019 21:00:00 8,8 3,2 0,0
12.02.2019 20:00:00 9,2 2,5 0,0
12.02.2019 19:00:00 9,9 3,6 0,0
12.02.2019 18:00:00 10,6 4,0 0,0
12.02.2019 17:00:00 10,2 3,9 0,0
12.02.2019 16:00:00 11,2 1,1 0,0
12.02.2019 15:00:00 11,4 5,5 0,0
12.02.2019 14:00:00 11,6 6,8 0,0
12.02.2019 13:00:00 11,1 8,3 0,6
12.02.2019 12:00:00 11,1 8,6 0,8
12.02.2019 11:00:00 9,9 8,1 1,2
12.02.2019 10:00:00 10,8 7,4 0,0
12.02.2019 09:00:00 10,9 6,8 0,0
12.02.2019 08:00:00 10,0 6,2 0,0
12.02.2019 07:00:00 10,1 5,9 0,0
12.02.2019 06:00:00 9,7 6,6 0,0
12.02.2019 05:00:00 6,9 5,8 0,2
12.02.2019 04:00:00 7,2 5,5 0,0
12.02.2019 03:00:00 6,2 4,0 0,0
12.02.2019 02:00:00 6,3 4,8 0,0
12.02.2019 01:00:00 5,3 4,5 0,0
12.02.2019 00:00:00 4,4 3,8 0,0
11.02.2019 23:00:00 5,1 4,8 0,4
11.02.2019 22:00:00 2,6 1,9 0,6
11.02.2019 21:00:00 2,5 1,9 0,2
11.02.2019 20:00:00 2,3 1,2 0,2
11.02.2019 19:00:00 2,3 0,8 0,0
11.02.2019 18:00:00 2,4 0,0 0,0
11.02.2019 17:00:00 2,7 0,5 0,0
11.02.2019 16:00:00 4,1 -0,9 0,0
11.02.2019 15:00:00 4,5 1,4 0,0
11.02.2019 14:00:00 4,8 1,6 0,0
11.02.2019 13:00:00 2,6 1,1 0,0
11.02.2019 12:00:00 1,4 0,3 0,0
11.02.2019 11:00:00 0,6 0,0 0,0
11.02.2019 10:00:00 0,1 -0,5 0,0
11.02.2019 09:00:00 -1,5 -2,0 0,0
11.02.2019 08:00:00 -1,5 -2,4 0,0
11.02.2019 07:00:00 -1,0 -1,8 0,0
11.02.2019 06:00:00 -0,2 -1,5 0,0
11.02.2019 05:00:00 0,1 -1,1 0,0
11.02.2019 04:00:00 0,4 -0,4 0,0
11.02.2019 03:00:00 1,2 0,0 0,0
11.02.2019 02:00:00 1,6 -0,4 0,0
11.02.2019 01:00:00 1,6 0,2 0,4
11.02.2019 00:00:00 2,7 1,0 0,0
10.02.2019 23:00:00 2,6 1,5 0,4
10.02.2019 22:00:00 2,7 1,5 0,4
10.02.2019 21:00:00 2,7 2,0 1,4
10.02.2019 20:00:00 3,5 1,9 1,0
10.02.2019 19:00:00 3,8 2,5 0,4
10.02.2019 18:00:00 4,2 3,3 0,2
10.02.2019 17:00:00 3,8 2,8 0,2
10.02.2019 16:00:00 4,3 2,4 0,0
10.02.2019 15:00:00 4,9 2,7 0,0
10.02.2019 14:00:00 5,1 2,0 0,0
10.02.2019 13:00:00 6,2 1,7 0,0
10.02.2019 12:00:00 6,1 1,8 0,0
10.02.2019 11:00:00 5,0 0,6 0,0
10.02.2019 10:00:00 2,4 -0,1 0,0
10.02.2019 09:00:00 2,9 -0,4 0,0
10.02.2019 08:00:00 2,5 -0,9 0,0
10.02.2019 07:00:00 2,5 -1,0 0,0
10.02.2019 06:00:00 2,6 -1,1 0,0

tt = Temperatura
td = dewpoint
rr = precipitazioni

Stazioni seguenti

WeatherPro
AMSI
MeteoEarth